Torna al catalogo

STARLINK-34691

AttivoComunicazioniVLEO
NORAD 65691·PAYLOAD·🇺🇸 United States

Lanciato Sep 21, 2025 da Cape Canaveral Space Force Station

Loading…

Prossimi Passaggi (prossime 24 ore)

TLE

AggiornatoSource: CelesTrak SupGP

Epoca: Sep 14, 2026, 22:59 UTC

1 65691C 25212R   26257.95812500 -.00070043  00000+0 -20684-2 0  2575
2 65691  53.1579 175.2680 0001224  97.1420 112.4622 15.34441042    17

Traccia STARLINK-34691 in tempo reale con AllMySat

Download on the App Store